Location: ????????
(55.6189°N, 38.3031°E)
Time: 23:50:35
(UTC+00:00)

COSMO-SKYMED 1 - Pass Details

Date: 15 November 2019
Orbit: 621 x 623 km, 97.9° (Epoch: 12 December)

Event Time Altitude Azimuth Distance (km) Brightness Sun altitude
Rises 03:00:12 0° 183° (S) 2,896 6.1 -16.6°
Reaches altitude 10° 03:02:29 10° 191° (S) 1,994 5.1 -16.3°
Maximum altitude 03:06:36 41° 262° (W) 910 2.9 -15.7°
Enters shadow 03:10:18 13° 331° (NNW) 1,841 4.6 -15.2°
